Regional Weather Roundup
Issued by NWS Bismarck, ND

Home | Current Version | Previous Version | Text Only | Print | Product List | Glossary On
Versions: 1 2 3 4 5 6 7 8 9 10 11 12 13 14 15 16 17 18 19 20 21 22 23 24 25 26 27 28 29 30 31 32 33 34 35 36 37 38 39 40 41 42 43 44 45 46 47 48 49 50
000
ASUS43 KBIS 292202
RWRBIS

NWR BROADCAST TEXT
NATIONAL WEATHER SERVICE BISMARCK ND
500 PM CDT FRI MAY 29 2015

NOTE: "FAIR" INDICATES FEW OR NO CLOUDS BELOW 12,000 FEET WITH NO
SIGNIFICANT WEATHER AND/OR OBSTRUCTIONS TO VISIBILITY.


CITY           SKY/WX    TMP DP  RH WIND       PRES   REMARKS
WILLISTON      SUNNY     59  31  34 VRB5      30.29S
MINOT          MOSUNNY   56  33  42 N8        30.26F
MINOT AFB      SUNNY     56  34  43 N13G20    30.26S
BISMARCK       MOSUNNY   58  36  43 N13       30.25F
DICKINSON        N/A    N/A N/A N/A MISG      30.26S
GARRISON         N/A     55  34  45 NE7       30.27S
HETTINGER ARPT MOSUNNY   53  36  52 NW12      30.28S
JAMESTOWN      MOSUNNY   57  37  47 N25       30.18S
CARRINGTON     FAIR      54  36  50 N17G25    30.23S
OAKES            N/A     54  43  66 N22G29    30.16R
STANLEY        FAIR      54  32  43 VRB6G14   30.29S
$$

CITY           SKY/WX    TMP DP  RH WIND       PRES   REMARKS
GRAND FORKS    MOSUNNY   56  38  50 N20G32    30.18S
GRAND FORKS AF NOT AVBL
DEVILS LAKE    SUNNY     55  32  41 N16G23    30.22S
FARGO          PTSUNNY   56  42  59 N24G30    30.14S
CAVALIER       MOCLDY    52  36  54 N20G25    30.24R
GRAFTON        FAIR      54  37  54 N23G29    30.21S
LANGDON        FAIR      54  34  47 N20G29    30.24R
ROLLA          MOCLDY    52  32  46 N18       30.26R
WALHALLA         N/A     52  32  46 MISG      30.25S
$$

CITY           SKY/WX    TMP DP  RH WIND       PRES   REMARKS
ABERDEEN       CLOUDY    54  43  66 N18       30.16F
MOBRIDGE       CLOUDY    57  38  48 N16       30.21R
BUFFALO          N/A     55  38  52 E10       30.21F
RAPID CITY     PTSUNNY   57  43  59 NE18G30   30.26S
GLASGOW        SUNNY     59  31  34 CALM      30.27F
SIDNEY         SUNNY     61  30  31 N7        30.28S
WOLF POINT     SUNNY     60  31  33 VRB7      30.29F
GLENDIVE       SUNNY     57  34  41 CALM      30.29S
MILES CITY     SUNNY     61  30  31 NW6       30.26F
BAKER          SUNNY     60  33  36 MISG      30.28S
$$

CITY           SKY/WX    TMP DP  RH WIND       PRES   REMARKS
BILLINGS       MOSUNNY   58  45  62 E8        30.25F
GREAT FALLS    MOSUNNY   67  50  54 NE13      30.13F
$$




USA.gov is the U.S. government's official web portal to all federal, state and local government web resources and services.